When you browse on this site, cookies collect data to enhance your experience and personalize the content and advertising you see.
Visit our Privacy Policy to learn more. By continuing to use the site, you agree to this use of cookies and data.
  • In Österreich
  • Länderverzeichnis
  • Für 7 Tage
  • Wassertemperatur
  • Satellitenkarten
  • Wetterkarte
  • News
  • Widgets
  • user-avatar
    Anmelden

    Stündliche Wetter Rohovychi

    Heute, 21 Februar, Donnerstag

    Zeit Temperatur Niederschläge Wind Luftdruck Luftfeuchtigkeit
    00:00 +1°C° 0 mm 6 m/S 737 mmHg 78%
    01:00 -1°C° 0 mm 6 m/S 737 mmHg 78%
    02:00 0°C° 0 mm 4 m/S 737 mmHg 82%
    03:00 0°C° 0 mm 5 m/S 737 mmHg 82%
    04:00 -1°C° 0 mm 5 m/S 738 mmHg 83%
    05:00 -2°C° 0 mm 6 m/S 738 mmHg 83%
    06:00 -3°C° 0 mm 6 m/S 738 mmHg 81%
    07:00 -3°C° 0 mm 6 m/S 738 mmHg 79%
    08:00 -3°C° 0 mm 6 m/S 738 mmHg 77%
    09:00 -2°C° 0 mm 7 m/S 739 mmHg 71%
    10:00 -1°C° 0 mm 7 m/S 739 mmHg 64%
    11:00 0°C° 0 mm 8 m/S 739 mmHg 57%
    12:00 0°C° 0 mm 7 m/S 739 mmHg 58%
    13:00 +2°C° 0 mm 7 m/S 739 mmHg 59%
    14:00 +2°C° 0 mm 7 m/S 739 mmHg 60%
    15:00 +2°C° 0 mm 6 m/S 739 mmHg 64%
    16:00 +1°C° 0 mm 5 m/S 739 mmHg 67%
    17:00 +1°C° 0 mm 5 m/S 739 mmHg 71%
    18:00 +1°C° 0.1 mm 4 m/S 739 mmHg 76%
    19:00 +1°C° 0.1 mm 3 m/S 739 mmHg 81%
    20:00 +2°C° 0.1 mm 2 m/S 739 mmHg 86%
    21:00 +1°C° 0.3 mm 2 m/S 739 mmHg 84%
    22:00 -1°C° 0.3 mm 3 m/S 738 mmHg 82%
    23:00 -1°C° 0.3 mm 3 m/S 738 mmHg 79%

    Morgen, 22 Februar, Freitag

    Zeit Temperatur Niederschläge Wind Luftdruck Luftfeuchtigkeit
    00:00 -2°C° 0.6 mm 3 m/S 738 mmHg 83%
    01:00 -4°C° 0.6 mm 3 m/S 738 mmHg 86%
    02:00 -5°C° 0.6 mm 3 m/S 738 mmHg 90%
    03:00 -5°C° 0.5 mm 3 m/S 738 mmHg 89%
    04:00 -5°C° 0.5 mm 4 m/S 738 mmHg 88%
    05:00 -7°C° 0.5 mm 4 m/S 738 mmHg 87%
    06:00 -7°C° 0.3 mm 4 m/S 739 mmHg 83%
    07:00 -7°C° 0.3 mm 5 m/S 740 mmHg 80%
    08:00 -7°C° 0.3 mm 5 m/S 740 mmHg 77%
    09:00 -9°C° 0 mm 6 m/S 741 mmHg 72%
    10:00 -9°C° 0 mm 6 m/S 742 mmHg 67%
    11:00 -9°C° 0 mm 7 m/S 743 mmHg 61%
    12:00 -9°C° 0 mm 6 m/S 743 mmHg 59%
    13:00 -9°C° 0 mm 6 m/S 744 mmHg 56%
    14:00 -8°C° 0 mm 6 m/S 744 mmHg 54%
    15:00 -9°C° 0 mm 6 m/S 745 mmHg 55%
    16:00 -9°C° 0 mm 6 m/S 745 mmHg 56%
    17:00 -9°C° 0 mm 6 m/S 745 mmHg 58%
    18:00 -10°C° 0 mm 6 m/S 746 mmHg 60%
    19:00 -10°C° 0 mm 6 m/S 746 mmHg 62%
    20:00 -11°C° 0 mm 5 m/S 747 mmHg 64%
    21:00 -10°C° 0 mm 6 m/S 747 mmHg 65%
    22:00 -10°C° 0 mm 6 m/S 747 mmHg 65%
    23:00 -10°C° 0 mm 6 m/S 748 mmHg 65%

    übermorgen, 23 Februar, Samstag

    Zeit Temperatur Niederschläge Wind Luftdruck Luftfeuchtigkeit
    00:00 -10°C° 0 mm 6 m/S 748 mmHg 65%
    01:00 -10°C° 0 mm 6 m/S 748 mmHg 66%
    02:00 -11°C° 0 mm 5 m/S 749 mmHg 66%
    03:00 -11°C° 0 mm 5 m/S 749 mmHg 67%
    04:00 -11°C° 0 mm 5 m/S 749 mmHg 68%
    05:00 -11°C° 0 mm 5 m/S 749 mmHg 68%
    06:00 -12°C° 0 mm 5 m/S 750 mmHg 68%
    07:00 -12°C° 0 mm 5 m/S 750 mmHg 68%
    08:00 -12°C° 0 mm 5 m/S 751 mmHg 69%
    09:00 -11°C° 0 mm 5 m/S 751 mmHg 66%
    10:00 -11°C° 0 mm 5 m/S 751 mmHg 63%
    11:00 -10°C° 0 mm 5 m/S 751 mmHg 61%
    12:00 -10°C° 0 mm 5 m/S 751 mmHg 59%
    13:00 -8°C° 0 mm 5 m/S 751 mmHg 57%
    14:00 -8°C° 0 mm 5 m/S 751 mmHg 56%
    15:00 -8°C° 0 mm 5 m/S 751 mmHg 57%
    16:00 -8°C° 0 mm 4 m/S 751 mmHg 58%
    17:00 -8°C° 0 mm 4 m/S 751 mmHg 60%
    18:00 -8°C° 0 mm 3 m/S 751 mmHg 62%
    19:00 -8°C° 0 mm 3 m/S 751 mmHg 64%
    20:00 -9°C° 0 mm 3 m/S 752 mmHg 66%
    21:00 -9°C° 0 mm 3 m/S 751 mmHg 67%
    22:00 -9°C° 0 mm 3 m/S 751 mmHg 68%
    23:00 -8°C° 0 mm 2 m/S 751 mmHg 69%

    24 Februar, Sonntag

    Zeit Temperatur Niederschläge Wind Luftdruck Luftfeuchtigkeit
    00:00 -8°C° 0 mm 2 m/S 751 mmHg 69%
    01:00 -8°C° 0 mm 2 m/S 751 mmHg 69%
    02:00 -8°C° 0 mm 2 m/S 751 mmHg 69%
    03:00 -8°C° 0 mm 2 m/S 751 mmHg 70%
    04:00 -8°C° 0 mm 2 m/S 750 mmHg 71%
    05:00 -8°C° 0 mm 2 m/S 750 mmHg 72%
    06:00 -8°C° 0 mm 2 m/S 750 mmHg 70%
    07:00 -8°C° 0 mm 3 m/S 750 mmHg 69%
    08:00 -8°C° 0 mm 3 m/S 750 mmHg 67%
    09:00 -7°C° 0 mm 3 m/S 750 mmHg 62%
    10:00 -6°C° 0 mm 3 m/S 750 mmHg 57%
    11:00 -5°C° 0 mm 3 m/S 750 mmHg 52%
    12:00 -5°C° 0 mm 3 m/S 750 mmHg 52%
    13:00 -4°C° 0 mm 3 m/S 750 mmHg 51%
    14:00 -4°C° 0 mm 3 m/S 750 mmHg 50%
    15:00 -4°C° 0 mm 3 m/S 749 mmHg 59%
    16:00 -4°C° 0 mm 3 m/S 749 mmHg 67%
    17:00 -5°C° 0 mm 3 m/S 749 mmHg 75%
    18:00 -4°C° 0 mm 2 m/S 749 mmHg 80%
    19:00 -5°C° 0 mm 2 m/S 749 mmHg 84%
    20:00 -3°C° 0 mm 1 m/S 749 mmHg 88%
    21:00 -3°C° 0 mm 1 m/S 750 mmHg 89%
    22:00 -4°C° 0 mm 1 m/S 750 mmHg 90%
    23:00 -5°C° 0 mm 0 m/S 750 mmHg 90%

    25 Februar, Montag

    Zeit Temperatur Niederschläge Wind Luftdruck Luftfeuchtigkeit
    00:00 -5°C° 0 mm 0 m/S 750 mmHg 91%
    01:00 -4°C° 0 mm 1 m/S 750 mmHg 91%
    02:00 -4°C° 0 mm 1 m/S 750 mmHg 91%
    03:00 -4°C° 0 mm 1 m/S 750 mmHg 91%
    04:00 -6°C° 0 mm 2 m/S 750 mmHg 91%
    05:00 -6°C° 0 mm 2 m/S 750 mmHg 91%
    06:00 -6°C° 0 mm 2 m/S 750 mmHg 90%
    07:00 -6°C° 0 mm 2 m/S 750 mmHg 89%
    08:00 -6°C° 0 mm 3 m/S 750 mmHg 87%
    09:00 -5°C° 0 mm 3 m/S 750 mmHg 83%
    10:00 -4°C° 0 mm 3 m/S 750 mmHg 78%
    11:00 -2°C° 0 mm 4 m/S 750 mmHg 73%
    12:00 -2°C° 0 mm 4 m/S 750 mmHg 71%
    13:00 -1°C° 0 mm 4 m/S 749 mmHg 68%
    14:00 0°C° 0 mm 5 m/S 749 mmHg 65%
    15:00 0°C° 0 mm 4 m/S 748 mmHg 68%
    16:00 -1°C° 0 mm 4 m/S 748 mmHg 72%
    17:00 -1°C° 0 mm 4 m/S 747 mmHg 75%
    18:00 -1°C° 0 mm 4 m/S 747 mmHg 80%
    19:00 -1°C° 0 mm 4 m/S 748 mmHg 85%
    20:00 -2°C° 0 mm 4 m/S 748 mmHg 89%
    21:00 -2°C° 0 mm 4 m/S 747 mmHg 90%
    22:00 -2°C° 0 mm 4 m/S 747 mmHg 91%
    23:00 -3°C° 0 mm 4 m/S 747 mmHg 92%

    26 Februar, Dienstag

    Zeit Temperatur Niederschläge Wind Luftdruck Luftfeuchtigkeit
    00:00 -3°C° 0 mm 4 m/S 747 mmHg 93%
    01:00 -3°C° 0 mm 4 m/S 746 mmHg 93%
    02:00 -4°C° 0 mm 5 m/S 746 mmHg 94%
    03:00 -4°C° 0 mm 5 m/S 746 mmHg 94%
    04:00 -3°C° 0 mm 4 m/S 745 mmHg 93%
    05:00 -4°C° 0 mm 4 m/S 745 mmHg 93%
    06:00 -4°C° 0 mm 4 m/S 745 mmHg 92%
    07:00 -3°C° 0 mm 4 m/S 744 mmHg 91%
    08:00 -3°C° 0 mm 4 m/S 744 mmHg 90%
    09:00 -3°C° 0 mm 4 m/S 744 mmHg 86%
    10:00 -2°C° 0 mm 4 m/S 743 mmHg 82%
    11:00 -1°C° 0 mm 4 m/S 743 mmHg 79%
    12:00 0°C° 0 mm 5 m/S 742 mmHg 74%
    13:00 +1°C° 0 mm 6 m/S 741 mmHg 69%
    14:00 +2°C° 0 mm 6 m/S 740 mmHg 64%
    15:00 +2°C° 0 mm 6 m/S 739 mmHg 66%
    16:00 +1°C° 0 mm 6 m/S 738 mmHg 68%
    17:00 +1°C° 0 mm 6 m/S 737 mmHg 70%
    18:00 +1°C° 0 mm 6 m/S 737 mmHg 75%
    19:00 -1°C° 0 mm 7 m/S 736 mmHg 80%
    20:00 -1°C° 0 mm 7 m/S 736 mmHg 85%
    21:00 -1°C° 0 mm 7 m/S 736 mmHg 85%
    22:00 -1°C° 0 mm 7 m/S 735 mmHg 85%
    23:00 -2°C° 0 mm 7 m/S 735 mmHg 85%
    Mehr zeigen